Location: Unspecified
(42.9300°N, 71.1866°W)
Time: 19:01:57
(UTC-04:00)

Okean 3 - Visible Passes

Search period start: 24 September 2017 00:00
Search period end: 04 October 2017 00:00
Orbit: 578 x 601 km, 82.5° (Epoch: 24 September)

Date Brightness Start Highest point End Pass type
(mag) Time Alt. Az. Time Alt. Az. Time Alt. Az.
24 Sep 6.4 02:57:40 14° NE 02:57:40 14° NE 02:58:41 10° NE visible
24 Sep 4.9 04:34:15 26° NNW 04:34:15 26° NNW 04:36:34 10° N visible
25 Sep 6.3 03:06:18 16° NE 03:06:18 16° NE 03:07:22 10° NNE visible
25 Sep 5.4 04:42:52 18° NW 04:42:52 18° NW 04:44:28 10° NNW visible
26 Sep 6.2 03:14:52 16° NNE 03:14:52 16° NNE 03:15:52 10° NNE visible
26 Sep 5.7 04:51:27 12° NW 04:51:27 12° NW 04:52:08 10° NNW visible
27 Sep 6.2 03:23:26 15° NNE 03:23:26 15° NNE 03:24:13 10° NNE visible
28 Sep 6.2 03:31:57 13° N 03:31:57 13° N 03:32:28 10° N visible
29 Sep 6.3 03:40:26 11° N 03:40:26 11° N 03:40:37 10° N visible
